This demonstration page uses our WeatherBlox Daily Observations layout. Learn more.

Left ArrowRight Arrow

Hourly Observations for May 13, 2018

Temp ( °F °C ) Dew Point ( °F °C ) Humidity (%) Winds ( mph kmh ) Pressure ( in mb ) Visibility ( mi km ) Precip ( " mm )
12:53 am 00:53 Clear 42 5.6 40 4.4 92 92 N N/A 30.05 1018 10 16 N/A
1:53 am 01:53 Clear 38 3.3 37 2.8 97 97 WSW 5 7 30.05 1018 10 16 N/A
2:53 am 02:53 Clear 39 3.9 37 2.8 93 93 S 3 6 30.04 1017 10 16 N/A
3:53 am 03:53 Clear 38 3.3 36 2.2 93 93 N N/A 30.02 1017 10 16 N/A
4:51 am 04:51 Mostly Clear with Mist and Fog 37 3 37 3 100 100 SE 3 6 30.09 1019 1 2 N/A
4:53 am 04:53 Mostly Cloudy with Fog 37 2.8 37 2.8 100 100 SE 3 6 30.02 1017 1 1 N/A
5:02 am 05:02 Mostly Cloudy with Fog 37 3 36 2 93 93 N N/A 30.09 1019 0 0 N/A
5:13 am 05:13 Mostly Cloudy with Fog 37 2.8 36 2.2 96 96 N N/A 30.09 1019 1 1 N/A
5:25 am 05:25 Mostly Cloudy with Fog 36 2.2 36 2.2 100 100 N N/A 30.09 1019 0 0 N/A
5:38 am 05:38 Mostly Cloudy with Fog 36 2 36 2 100 100 N N/A 30.09 1019 1 1 N/A
5:53 am 05:53 Mostly Cloudy with Fog 36 2.2 36 2.2 100 100 N N/A 30.04 1017 1 1 N/A
5:59 am 05:59 Sunny with Mist and Fog 36 2.2 35 1.7 97 97 SSE 3 6 30.09 1019 1 2 N/A
6:01 am 06:01 Sunny with Mist and Fog 35 1.7 35 1.7 100 100 SE 3 6 30.09 1019 3 5 N/A
6:53 am 06:53 Sunny 39 3.9 38 3.3 96 96 N N/A 30.04 1017 10 16 N/A
7:53 am 07:53 Sunny 44 6.7 42 5.6 93 93 W 6 9 30.04 1017 10 16 N/A
8:53 am 08:53 Sunny 49 9.4 44 6.7 83 83 WSW 8 13 30.05 1018 10 16 N/A
9:53 am 09:53 Sunny 56 13.3 45 7.2 67 67 SW 9 15 30.03 1017 10 16 N/A
10:53 am 10:53 Sunny 61 16.1 44 6.7 54 54 W 5 7 30.02 1017 10 16 N/A
11:53 am 11:53 Sunny 64 17.8 41 5 43 43 SSW 3 6 30.01 1016 10 16 N/A
12:53 pm 12:53 Sunny 67 19.4 42 5.6 41 41 SSE 7 11 30.00 1016 10 16 N/A
1:53 pm 13:53 Sunny 69 20.6 38 3.3 32 32 N N/A 29.99 1016 10 16 N/A
2:53 pm 14:53 Sunny 73 22.8 40 4.4 30 30 N N/A 29.97 1015 10 16 N/A
3:53 pm 15:53 Sunny 73 22.8 38 3.3 28 28 VRB 3 6 29.96 1014 10 16 N/A
4:53 pm 16:53 Sunny 74 23.3 40 4.4 29 29 W 5 7 29.94 1014 10 16 N/A
5:53 pm 17:53 Sunny 75 23.9 40 4.4 28 28 N N/A 29.94 1014 10 16 N/A
6:53 pm 18:53 Mostly Sunny 72 22.2 41 5 33 33 SSE 6 9 29.93 1014 10 16 N/A
7:53 pm 19:53 Partly Cloudy 69 20.6 49 9.4 49 49 S 6 9 29.93 1014 10 16 N/A
8:53 pm 20:53 Mostly Cloudy 64 17.8 51 10.6 63 63 S 5 7 29.95 1014 10 16 N/A
9:53 pm 21:53 Mostly Cloudy 61 16.1 47 8.3 60 60 W 3 6 29.96 1015 10 16 N/A
10:53 pm 22:53 Cloudy 57 13.9 48 8.9 72 72 WSW 7 11 29.98 1015 10 16 N/A
11:53 pm 23:53 Mostly Cloudy 55 12.8 48 8.9 77 77 SSW 8 13 29.98 1015 10 16 N/A

Powered by AerisWeather